Regional Weather Roundup
Issued by NWS Charleston, SC

Current Version | Previous Version | Graphics & Text | Print | Product List | Glossary On
Versions: 1 2 3 4 5 6 7 8 9 10 11 12 13 14 15 16 17 18 19 20 21 22 23 24 25 26 27 28 29 30 31 32 33 34 35 36 37 38 39 40 41 42 43 44 45 46 47 48 49 50
000 ASUS42 KCHS 081127 RWRCHS REGIONAL WEATHER ROUNDUP NATIONAL WEATHER SERVICE CHARLESTON SC 600 AM EST MON FEB 08 2016 NOTE: "FAIR" INDICATES FEW OR NO CLOUDS BELOW 12,000 FEET WITH NO SIGNIFICANT WEATHER AND/OR OBSTRUCTIONS TO VISIBILITY. NOT ALL STATIONS ARE QUALITY CONTROLLED BY THE NATIONAL WEATHER SERVICE. USE DATA WITH CAUTION...ESPECIALLY DEWPOINT OBSERVATIONS. NOTICE: OBSERVATIONS FOR THE SAVANNAH-HILTON HEAD INTERNATIONAL AIRPORT /KSAV/ HAVE BEEN TEMPORARILY REMOVED DUE TO AN ERRONEOUS TEMPERATURE SENSOR. THE OBSERVATION WILL BE REINTRODUCED ONCE REPAIRS ARE COMPLETE. SCZ027-030-031-034>040-042>050-081200- ...SOUTHEAST SOUTH CAROLINA... CITY SKY/WX TMP DP RH WIND PRES REMARKS N CHARLESTON CLEAR 34 29 82 W5 29.90R WCI 30 WATERFRONT PRK N/A 40 34 79 VRB3 29.74F MOUNT PLEASANT FAIR 32 32 100 CALM 29.92R JOHNS ISLAND FAIR 37 32 81 SW6 29.92R WCI 33 PINOPOLIS N/A 39 30 70 VRB3 29.80F MONCKS CORNER FAIR 28 27 93 CALM 29.90R SUMMERVILLE FAIR 30 30 100 SW3 29.91 BEAUFORT MCAS CLEAR 35 29 78 SW10 29.93R WCI 27 BEAUFORT ARPT FAIR 39 32 75 SW5 29.93R WCI 36 HILTON HEAD IS NOT AVBL WALTERBORO SUNNY 36 32 87 W5 29.92R WCI 32 ALLENDALE FAIR 36 30 80 CALM 29.91R ...SOUTHERN MIDLANDS AND PEE DEE... CITY SKY/WX TMP DP RH WIND PRES REMARKS GEORGETOWN NOT AVBL KINGSTREE NOT AVBL ORANGEBURG CLEAR 32 29 88 CALM 29.88R BARNWELL FAIR 32 32 100 CALM 29.90S AIKEN FAIR 32 25 74 SW5 29.90S WCI 27 MANNING FAIR 30 28 93 CALM 29.89R COLUMBIA CLEAR 33 25 72 W3 29.86S SUMTER CLEAR 31 26 83 SW1 29.85R FLORENCE CLEAR 30 28 92 CALM 29.87S MYRTLE BEACH CLEAR 34 25 69 CALM 29.90S N MYRTLE BEACH CLEAR 37 28 70 CALM 29.88R $$ GAZ063-065-086>088-099>101-113>116-118-119-134>141-150-081200- ...SOUTHEAST GEORGIA... CITY SKY/WX TMP DP RH WIND PRES REMARKS SAVANNAH ARPT CLEAR 35 29 78 W6 29.95S WCI 30 HUNTER AAF CLEAR 34 30 84 SW3 29.93S FORT STEWART CLEAR 35 29 80 CALM 29.94R STATESBORO CLEAR 42 26 52 W3 29.94R SYLVANIA SUNNY 37 32 82 W3 29.94R CLAXTON FAIR 34 33 96 CALM 29.96R ...CSRA...CENTRAL AND FAR SOUTHEAST GEORGIA... CITY SKY/WX TMP DP RH WIND PRES REMARKS THOMSON CLEAR 35 30 83 CALM 29.93R AUGUSTA-BUSH CLEAR 31 25 78 CALM 29.89F AUGUSTA-DANIEL CLEAR 42 23 46 SW3 29.88F SWAINSBORO FAIR 32 30 93 CALM 29.94R VIDALIA CLEAR 34 32 93 SW5 29.95S WCI 30 EASTMAN FAIR 37 30 78 CALM 29.98S HAZLEHURST FAIR 40 31 71 SW5 29.95S WCI 36 ALMA CLEAR 34 31 88 CALM 29.97S WAYCROSS CLEAR 37 34 87 W6 30.00R WCI 32 JESUP FAIR 32 32 100 CALM 29.98R BAXLEY FAIR 36 34 93 S5 29.97R WCI 32 BRUNSWICK CLEAR 36 32 87 SW5 30.00R WCI 32 SAINT SIMONS CLEAR 40 32 73 W6 29.98S WCI 36 $$ SCZ027-028-034-036>038-045-046-048>050-GAZ119-141-081200- ...LAKE AND SUPPLEMENTAL COASTAL OBSERVATIONS... STATION/POSITION TIME TEMP WIND PRES WAVE SWELL AIR SEA DIR/SP/G HT/PER HT/PER/DIR (UTC) (F) (DEG/KT/KT) (MB) (FT/S) (FT/S/D) WINYAH BAY NOT AVBL LAKE MURRAY 1100 40 270/ 4/ 5 1010.5F ACE BASIN NERRS NOT AVBL FORT PULASKI 1100 42 52 260/ 7/ 9 1014.2R SAPELO ISLAND 1000 43 260/ 6 1015.0R $$ ANZ835-935-AMZ111-154-330-350-352-354-370-450-454-472-081200- ...C-MAN AND BUOY OBSERVATIONS... STATION/POSITION TIME TEMP WIND PRES WAVE SWELL AIR SEA DIR/SP/G HT/PER HT/PER/DIR (UTC) (F) (DEG/KT/KT) (MB) (FT/S) (FT/S/D) BUOY 41004 1050 53 66 290/ 12/ 16 1012.3R 5/11 3/11 BUOY 41008 1050 49 55 280/ 16/ 17 1014.4S 4/14 3/ 90/14 FOLLY BEACH CMAN 1100 41 250/ 6/ 8 1012.8R CAPERS NEARSHORE 1008 47 270/ 10/ 14 1012.1F FRIPP NEARSHORE 1000 47 280/ 12/ 16 1012.7F STATION/POSITION TIME TEMP WIND PRES WAVE SWELL AIR SEA DIR/SP/G HT/PER HT/PER/DIR (UTC) (F) (DEG/KT/KT) (MB) (FT/S) (FT/S/D) 5E ST. MARYS GA 1021 54 N/A 4/13 3/ 90/13 FRYING PAN BUOY 1100 50 64 320/ 17/ 23 1011.4R BUOY 41025 1050 46 70 330/ 27/ 33 1004.8R 13/12 10/100/12 CAPE LOOKOUT NC NOT AVBL BUOY 41002 1050 59 69 300/ 27/ 35 N/A 27/13 21/340/13 BUOY 41010 1020 62 73 1014.4R ST AUGUSTINE FL 1100 42 56 260/ 9/ 10 1017.1R $$

USA.gov is the U.S. government's official web portal to all federal, state and local government web resources and services.